STARLINK-35112, 65520

Orbit data source: Space-Track

STARLINK-35112, 65520 is a payload satellite owned by SpaceX/Seattle (US) in SSO that was launched on Sat, 06 Sep 2025 UTC via an FALCON 9 launch vehicle from the Air Force Eastern Test Range (AFETR). Payload-class satellites include a variety of spacecraft equipped with specific instruments for various scientific and technological missions. These include communications satellites like Starlink; space stations such as the ISS; scientific satellites like the Hubble; Earth observation satellites from companies like Planet Labs, Umbra, and HawkEye 360; GPS; miniature CubeSats for education and research; and military/defense satellites.

Loading next visibility...
Identifier
65520, 2025-200A
Orbit
SSO
Country
Flag of USUS
Related business
Manufacturer
SpaceX/Seattle
Mission
Operational Commercial Communications
Bus & Motor
STARLINK V2MO, Unknown motor
Mass
575 kg wet, ~530 kg dry
Launch date (UTC)
2025-09-06 (9 months ago)
Launch vehicle
FALCON 9
Launch site
Air Force Eastern Test Range (AFETR)
Object type
Payload
Rocket body
Debris
Shape & HBR
Box + 2 Pan, 17.7 m
Radar Cross Section
36.964 m², Large (>1 m²)

Expand to show TLE details & history
Last TLE update: 15 hours ago

TLE from 15 hours ago
0 STARLINK-35112
1 65520U 25200A   26171.21112181  .00002989  00000-0  21093-3 0  9997
2 65520  97.3354 239.7105 0001677 101.2293 258.9123 15.05661099 44557
Epoch: 2026-06-20T05:04Z
TLE epoch observation values (Epoch: 2026-06-20T05:04:00.924Z)
Latitude
-0.00003°
Longitude
-104.72235°
Altitude
552.774 km
Speed
7.585 km/s
True Right ascension
15h 58m 50s
True Declination
0° 00' 00"
Sunlit
Object was in full shadow at epoch
Visualization orbit readout
Latitude
Unknown
Longitude
Unknown
Altitude
Unknown
Speed
Unknown
Apparent Right ascension
Unknown
Apparent Declination
Unknown
Sunlit
N/A
Visualization observer readout
Local Sidereal Time
07:15:02
Azimuth
Unknown
Elevation
Unknown
Doppler factor
Unknown
Orbital elements
Apogee altitude
547.62 km
Perigee altitude
545.298 km
Semi-major axis
6,924.596 km
Eccentricity
0.00017
Inclination
97.3354°
RAAN
239.7105°
Arg. of periapsis
101.2293°
True anomaly
258.89344°
Mean anomaly
258.9123°
Eccentric anomaly
258.90287°
Mean motion
3.76662 °/min
Orbital period
95.58 mins
BSTAR
0.00021093
Loading maneuver chart data...
Computing Atmospheric mass density...
Loading historical data...
Loading historical data...
Loading historical data...
Loading historical data...
Loading historical data...
Loading historical data...
Loading historical data...

Documentation

Showing up to 5 results
|